[[{"header":{"parameterUnit":"m.s-1","parameterCategory":1,"la1":30.2991,"la2":30.254,"lo1":-89.0895,"lo2":-89.0444,"dy":0.0017,"dx":0.0017,"nx":28,"ny":28,"refTime":"2025-02-23T03:00:00:Z","depth":0,"parameterNumber":2,"parameterNumberName":"U-component_of_WINDS"},"data":[0,0,0,0,0,0,0,0,0,0,0,0,0,0,0,0,0,0,0,0,0,0,0,0,0,0,0,0,0,0,0,0,0,0,0,0,0,0,0,0,0,0,0,0,0,0,0,0,0,0,0,0,0,0,0,0,0,0,-1.2515,-1.2515,0,-1.2474,-1.2474,-1.2473,-1.2421,-1.2421,-1.242,-1.2419,-1.2378,-1.2378,-1.2377,0,0,0,0,0,0,0,0,0,0,0,0,0,-1.2551,-1.2551,-1.2516,-1.2515,-1.2514,-1.2474,-1.2474,-1.2473,-1.2422,-1.2421,-1.242,-1.2419,-1.2378,-1.2378,-1.2377,0,0,0,0,0,0,0,0,0,0,0,0,0,-1.2525,-1.2551,-1.2516,-1.2484,-1.2481,-1.2475,-1.2474,-1.2473,-1.2422,-1.2421,-1.2419,-1.2418,-1.2378,-1.2378,-1.2377,-1.2399,0,0,-1.2376,-1.2376,0,0,0,0,0,0,0,0,-1.2527,-1.2524,-1.2489,-1.2486,-1.2482,-1.2452,-1.2471,-1.2448,-1.2422,-1.2444,-1.2419,-1.2418,-1.2404,-1.2401,-1.2396,-1.2397,-1.2396,-1.2376,-1.2376,-1.2375,-1.2375,0,0,0,0,0,0,0,-1.2529,-1.2526,-1.2499,-1.2489,-1.2485,-1.2472,-1.2467,-1.2467,-1.2431,-1.2442,-1.2438,-1.2434,-1.2402,-1.2397,-1.2395,-1.2395,-1.2376,-1.2375,-1.2375,-1.2375,-1.2414,-1.2415,0,0,0,0,0,0,-1.2535,-1.2527,-1.2501,-1.2498,-1.2502,-1.2473,-1.2467,-1.2463,-1.2431,-1.2425,-1.2435,-1.2432,-1.2398,-1.2395,-1.2393,-1.2418,-1.2375,-1.2375,-1.2375,-1.2413,-1.2414,-1.2416,0,0,0,0,0,0,-1.2536,-1.2533,-1.2502,-1.2512,-1.2507,-1.2473,-1.2469,-1.2463,-1.2458,-1.2426,-1.242,-1.2437,-1.2397,-1.2394,-1.2398,-1.2416,-1.2375,-1.2374,-1.2411,-1.2413,-1.2415,-1.2467,0,0,0,0,0,0,-1.2537,-1.2534,-1.2541,-1.2512,-1.2506,-1.2508,-1.247,-1.2463,-1.2457,-1.2452,-1.2426,-1.242,-1.2396,-1.2399,-1.2398,-1.2414,-1.2374,-1.241,-1.2412,-1.2414,-1.2464,-1.247,-1.2476,0,0,0,0,0,-1.2539,-1.2558,-1.2542,-1.2539,-1.2515,-1.2509,-1.2506,-1.2477,-1.2458,-1.2466,-1.2446,-1.2421,-1.2414,-1.24,-1.2398,-1.2415,-1.2408,-1.2411,-1.2414,-1.2461,-1.2469,-1.2476,0,0,0,0,0,0,-1.259,-1.2553,-1.2536,-1.2545,-1.2531,-1.25,-1.2509,-1.2487,-1.2477,-1.2473,-1.2438,-1.2433,-1.2442,-1.2429,-1.2414,-1.2435,-1.2407,-1.241,-1.2444,-1.2451,-1.2458,-1.2461,-1.2373,0,0,0,0,0,-1.2602,-1.26,-1.2568,-1.258,-1.2573,-1.2543,-1.2539,-1.2518,-1.2502,-1.2495,-1.2475,-1.2461,-1.2455,-1.2452,-1.2446,-1.2461,-1.2456,-1.2472,-1.2478,-1.2484,-1.2486,-1.2495,-1.2502,-1.2426,-1.2426,-1.2426,0,0,-1.2628,-1.2607,-1.2608,-1.259,-1.2576,-1.2575,-1.2538,-1.2538,-1.2537,-1.2495,-1.2499,-1.2484,-1.2465,-1.2476,-1.248,-1.2465,-1.2506,-1.2487,-1.2492,-1.2492,-1.2499,-1.2506,-1.2513,-1.2428,-1.2427,-1.2427,0,0,-1.2674,-1.2658,-1.2666,-1.2654,-1.2633,-1.2613,-1.2615,-1.2588,-1.2577,-1.2579,-1.2548,-1.2547,-1.2538,-1.2527,-1.252,-1.2563,-1.254,-1.2562,-1.2595,-1.2604,-1.261,-1.2615,-1.2632,-1.2638,-1.2565,-1.2565,-1.2565,0,-1.2708,-1.2705,-1.2674,-1.2676,-1.2669,-1.2632,-1.2641,-1.263,-1.2608,-1.2605,-1.2589,-1.2578,-1.2562,-1.2571,-1.2581,-1.2577,-1.2579,-1.2565,-1.2612,-1.2617,-1.2621,-1.2636,-1.2643,-1.2568,-1.2567,-1.2567,-1.2567,0,-1.2749,-1.2747,-1.2757,-1.2737,-1.2731,-1.2737,-1.2708,-1.2706,-1.2686,-1.2668,-1.2672,-1.2652,-1.2641,-1.2642,-1.2622,-1.2648,-1.2639,-1.2618,-1.259,-1.2632,-1.2646,-1.2651,-1.2572,-1.2571,-1.257,-1.2569,0,0,-1.2825,-1.2789,-1.2793,-1.2785,-1.276,-1.2758,-1.2763,-1.2752,-1.2752,-1.2738,-1.2742,-1.2736,-1.2717,-1.2709,-1.2688,-1.2695,-1.2732,-1.2673,-1.2672,-1.2686,-1.2761,-1.2777,-1.2785,-1.2717,-1.2718,-1.2719,-1.2763,0,-1.2868,-1.2873,-1.2845,-1.2858,-1.2857,-1.2822,-1.2826,-1.2812,-1.2795,-1.2792,-1.2774,-1.277,-1.2744,-1.274,-1.2746,-1.2727,-1.2747,-1.2723,-1.2721,-1.2721,-1.2727,-1.2792,-1.2809,-1.2851,-1.2768,-1.2768,-1.2769,0,-1.2917,-1.2907,-1.292,-1.2895,-1.2894,-1.2898,-1.2887,-1.2884,-1.2868,-1.2855,-1.2847,-1.2823,-1.2827,-1.28,-1.2805,-1.2789,-1.2787,-1.2778,-1.2779,-1.2778,-1.2748,-1.2793,-1.2864,-1.2871,-1.2777,-1.2777,-1.2776,0,-1.2973,-1.2962,-1.2969,-1.2962,-1.2934,-1.2938,-1.2926,-1.2909,-1.2905,-1.2895,-1.2892,-1.2883,-1.2878,-1.2872,-1.2847,-1.2829,-1.2856,-1.2826,-1.2846,-1.2847,-1.2854,-1.2854,-1.2926,-1.2851,-1.2851,-1.2851,-1.2851,0,-1.3023,-1.3033,-1.2994,-1.2998,-1.3008,-1.2977,-1.2988,-1.2973,-1.2958,-1.2959,-1.2928,-1.293,-1.2896,-1.2895,-1.2875,-1.2883,-1.2881,-1.2872,-1.2866,-1.2875,-1.2876,-1.2873,-1.287,-1.2853,-1.2852,-1.2852,-1.2852,0,-1.3087,-1.3061,-1.3066,-1.3039,-1.3033,-1.3042,-1.3019,-1.3022,-1.3004,-1.3006,-1.3005,-1.2976,-1.2973,-1.2947,-1.2938,-1.2925,-1.2941,-1.293,-1.2947,-1.2943,-1.2965,-1.2964,-1.3039,-1.3047,-1.2966,-1.2967,-1.2968,0,-1.3121,-1.3128,-1.3101,-1.31,-1.309,-1.3088,-1.3084,-1.3054,-1.3051,-1.3033,-1.3039,-1.3033,-1.3027,-1.3024,-1.3003,-1.2997,-1.2985,-1.3012,-1.2984,-1.2993,-1.2987,-1.2987,-1.2989,-1.3018,-1.3019,-1.302,-1.3021,0,-1.3184,-1.3172,-1.3166,-1.3157,-1.3153,-1.3144,-1.3134,-1.3135,-1.3102,-1.31,-1.3096,-1.3092,-1.3083,-1.3078,-1.3068,-1.3057,-1.3034,-1.303,-1.3034,-1.3043,-1.3053,-1.3049,-1.2964,-1.3028,-1.3027,-1.3027,-1.3026,-1.3026,-1.3235,-1.324,-1.3222,-1.3218,-1.3207,-1.3198,-1.32,-1.3183,-1.3179,-1.3169,-1.3152,-1.3151,-1.3136,-1.312,-1.3111,-1.3111,-1.3097,-1.3103,-1.3105,-1.3107,-1.3113,-1.3053,-1.3109,-1.3109,-1.3108,-1.3108,-1.3108,0,-1.3297,-1.3285,-1.3281,-1.3268,-1.3265,-1.3243,-1.323,-1.323,-1.3229,-1.3217,-1.3212,-1.3209,-1.3204,-1.3183,-1.3177,-1.3181,-1.317,-1.318,-1.318,-1.3178,-1.3125,-1.3122,-1.3189,-1.3189,-1.3189,-1.3189,-1.3189,-1.3189,-1.333,-1.3337,-1.3322,-1.3324,-1.3312,-1.3311,-1.3306,-1.3298,-1.3288,-1.3286,-1.3282,-1.3268,-1.3253,-1.3245,-1.3241,-1.3235,-1.3234,-1.3248,-1.3239,-1.319,-1.3182,-1.3174,-1.3172,-1.3248,-1.3248,-1.3293,-1.3293,-1.3293]},{"header":{"parameterUnit":"m.s-1","parameterCategory":1,"la1":30.2991,"la2":30.254,"lo1":-89.0895,"lo2":-89.0444,"dy":0.0017,"dx":0.0017,"nx":28,"ny":28,"refTime":"2025-02-23T03:00:00:Z","depth":0,"parameterNumber":3,"parameterNumberName":"V-component_of_WINDS"},"data":[0,0,0,0,0,0,0,0,0,0,0,0,0,0,0,0,0,0,0,0,0,0,0,0,0,0,0,0,0,0,0,0,0,0,0,0,0,0,0,0,0,0,0,0,0,0,0,0,0,0,0,0,0,0,0,0,0,0,-2.0296,-2.0296,0,-2.0286,-2.0286,-2.0286,-2.0292,-2.0292,-2.0293,-2.0293,-2.0283,-2.0283,-2.0282,0,0,0,0,0,0,0,0,0,0,0,0,0,-2.0322,-2.0321,-2.0296,-2.0296,-2.0296,-2.0286,-2.0286,-2.0286,-2.0292,-2.0292,-2.0293,-2.0293,-2.0283,-2.0283,-2.0282,0,0,0,0,0,0,0,0,0,0,0,0,0,-2.0311,-2.0321,-2.0296,-2.0298,-2.0298,-2.0286,-2.0286,-2.0286,-2.0292,-2.0292,-2.0293,-2.0293,-2.0284,-2.0283,-2.0282,-2.0269,0,0,-2.028,-2.0279,0,0,0,0,0,0,0,0,-2.0312,-2.031,-2.0297,-2.0297,-2.0297,-2.0291,-2.0292,-2.028,-2.0292,-2.0294,-2.0293,-2.0294,-2.0285,-2.0285,-2.0282,-2.0268,-2.0268,-2.028,-2.0279,-2.0279,-2.0278,0,0,0,0,0,0,0,-2.0313,-2.0311,-2.0292,-2.0297,-2.0297,-2.03,-2.0299,-2.029,-2.0287,-2.0294,-2.0294,-2.0293,-2.0286,-2.0282,-2.0282,-2.0268,-2.028,-2.0279,-2.0278,-2.0278,-2.0246,-2.0246,0,0,0,0,0,0,-2.0313,-2.0311,-2.0292,-2.0292,-2.0306,-2.0299,-2.0298,-2.0293,-2.0288,-2.0287,-2.0293,-2.0294,-2.0284,-2.0282,-2.0281,-2.0267,-2.0279,-2.0278,-2.0278,-2.0246,-2.0246,-2.0246,0,0,0,0,0,0,-2.0314,-2.0311,-2.0293,-2.0302,-2.03,-2.0298,-2.0292,-2.0292,-2.0289,-2.0287,-2.0287,-2.029,-2.0284,-2.0282,-2.0272,-2.0267,-2.0278,-2.0277,-2.0247,-2.0246,-2.0246,-2.0237,0,0,0,0,0,0,-2.0314,-2.0311,-2.0305,-2.0302,-2.0299,-2.0283,-2.0292,-2.0292,-2.0288,-2.0288,-2.0284,-2.0284,-2.0284,-2.0274,-2.0272,-2.0266,-2.0276,-2.0247,-2.0247,-2.0246,-2.0238,-2.0236,-2.0235,0,0,0,0,0,-2.0315,-2.0303,-2.0305,-2.0303,-2.0291,-2.0283,-2.0281,-2.0282,-2.0287,-2.0282,-2.0281,-2.0284,-2.0268,-2.0272,-2.027,-2.0264,-2.0248,-2.0247,-2.0246,-2.0239,-2.0237,-2.0235,0,0,0,0,0,0,-2.0305,-2.0302,-2.0305,-2.029,-2.0287,-2.0284,-2.0277,-2.028,-2.0274,-2.0275,-2.0277,-2.0276,-2.0266,-2.0264,-2.0269,-2.0253,-2.0259,-2.0257,-2.0254,-2.0252,-2.0251,-2.0251,-2.0276,0,0,0,0,0,-2.0301,-2.0294,-2.0292,-2.028,-2.0278,-2.0278,-2.0274,-2.0275,-2.0272,-2.027,-2.0268,-2.0265,-2.026,-2.0256,-2.025,-2.0238,-2.0239,-2.0233,-2.0232,-2.0231,-2.0229,-2.0226,-2.0224,-2.0243,-2.0243,-2.0243,0,0,-2.0293,-2.029,-2.0286,-2.0278,-2.0275,-2.0269,-2.0276,-2.0268,-2.0264,-2.0269,-2.026,-2.0259,-2.0256,-2.0245,-2.024,-2.0243,-2.0225,-2.023,-2.0229,-2.0228,-2.0225,-2.0223,-2.0221,-2.0242,-2.0242,-2.0242,0,0,-2.0275,-2.0272,-2.0262,-2.026,-2.0257,-2.0257,-2.0255,-2.0252,-2.0252,-2.0243,-2.0248,-2.0243,-2.0233,-2.0231,-2.0229,-2.0215,-2.0218,-2.0213,-2.0205,-2.0201,-2.02,-2.0198,-2.0195,-2.0193,-2.0212,-2.0212,-2.0212,0,-2.0265,-2.0254,-2.0257,-2.0249,-2.0247,-2.0252,-2.0244,-2.0242,-2.0237,-2.0235,-2.0239,-2.0229,-2.0227,-2.0217,-2.0214,-2.0212,-2.0211,-2.0213,-2.02,-2.0199,-2.0197,-2.0194,-2.0192,-2.0211,-2.0211,-2.0211,-2.0211,0,-2.0243,-2.0237,-2.023,-2.0226,-2.0223,-2.0214,-2.0217,-2.0213,-2.0216,-2.0217,-2.0209,-2.0208,-2.0204,-2.0202,-2.0203,-2.0193,-2.0196,-2.0199,-2.0205,-2.0195,-2.0192,-2.019,-2.0211,-2.0211,-2.0211,-2.0211,0,0,-2.0216,-2.0216,-2.0213,-2.0213,-2.0211,-2.0206,-2.02,-2.0196,-2.0194,-2.0192,-2.0187,-2.0181,-2.0185,-2.0183,-2.0185,-2.0182,-2.0173,-2.0187,-2.0187,-2.0185,-2.0164,-2.0161,-2.0159,-2.0176,-2.0175,-2.0175,-2.0165,0,-2.0198,-2.0187,-2.019,-2.0179,-2.0174,-2.0181,-2.0176,-2.0175,-2.0177,-2.0173,-2.0175,-2.0171,-2.0177,-2.0176,-2.0173,-2.0174,-2.0169,-2.0175,-2.0172,-2.0172,-2.0173,-2.0157,-2.0153,-2.0143,-2.0163,-2.0163,-2.0163,0,-2.0175,-2.0173,-2.0162,-2.0164,-2.0162,-2.0157,-2.0156,-2.0152,-2.0153,-2.0154,-2.0153,-2.0157,-2.0153,-2.016,-2.0155,-2.0159,-2.0159,-2.016,-2.016,-2.0159,-2.0167,-2.0157,-2.014,-2.0139,-2.0161,-2.0161,-2.0161,0,-2.0158,-2.0152,-2.0145,-2.0145,-2.0146,-2.0143,-2.0144,-2.0145,-2.0143,-2.0143,-2.0142,-2.0141,-2.014,-2.014,-2.0144,-2.0149,-2.014,-2.0146,-2.0142,-2.0142,-2.0139,-2.0139,-2.0122,-2.0138,-2.0138,-2.0138,-2.0138,0,-2.0138,-2.0131,-2.0138,-2.0133,-2.0127,-2.0132,-2.0125,-2.0127,-2.0128,-2.0126,-2.0132,-2.0129,-2.0135,-2.0134,-2.0138,-2.0134,-2.0134,-2.0136,-2.0137,-2.0135,-2.0135,-2.0134,-2.0135,-2.0138,-2.0138,-2.0138,-2.0138,0,-2.0116,-2.0121,-2.0114,-2.0117,-2.0118,-2.0113,-2.0116,-2.0113,-2.0117,-2.0113,-2.0113,-2.0118,-2.0117,-2.0122,-2.0121,-2.0124,-2.0119,-2.0121,-2.0119,-2.012,-2.0115,-2.0116,-2.0097,-2.0096,-2.0113,-2.0113,-2.0112,0,-2.0103,-2.0098,-2.0102,-2.0101,-2.0101,-2.0099,-2.0098,-2.0105,-2.0104,-2.0106,-2.0103,-2.0103,-2.0103,-2.0102,-2.0106,-2.0107,-2.0109,-2.0103,-2.0109,-2.0109,-2.011,-2.011,-2.0111,-2.0101,-2.0101,-2.0101,-2.0101,0,-2.008,-2.0083,-2.0082,-2.0082,-2.0081,-2.0082,-2.0082,-2.0081,-2.0088,-2.0088,-2.0087,-2.0087,-2.0088,-2.0089,-2.0091,-2.0093,-2.0099,-2.0099,-2.0098,-2.0096,-2.0095,-2.0097,-2.0116,-2.0099,-2.0099,-2.0099,-2.0099,-2.0099,-2.0063,-2.006,-2.0063,-2.0062,-2.0063,-2.0065,-2.0063,-2.0067,-2.0066,-2.0068,-2.0072,-2.0071,-2.0075,-2.0079,-2.0081,-2.0081,-2.0085,-2.0083,-2.0083,-2.0082,-2.0082,-2.0096,-2.0082,-2.0082,-2.0082,-2.0082,-2.0082,0,-2.0041,-2.0044,-2.0043,-2.0045,-2.0045,-2.0051,-2.0053,-2.0053,-2.0052,-2.0055,-2.0056,-2.0057,-2.0058,-2.0064,-2.0066,-2.0066,-2.0069,-2.0066,-2.0066,-2.0067,-2.0078,-2.0079,-2.0064,-2.0064,-2.0064,-2.0064,-2.0064,-2.0064,-2.0029,-2.0025,-2.0029,-2.0027,-2.003,-2.0029,-2.003,-2.0033,-2.0035,-2.0036,-2.0038,-2.0041,-2.0046,-2.005,-2.0052,-2.0054,-2.0055,-2.0052,-2.0054,-2.0064,-2.0066,-2.0068,-2.0069,-2.0052,-2.0052,-2.0044,-2.0043,-2.0043]}]]